CRE (WAAS/PRN 138) 1 28868U 05036A 21110.55504566 -.00000074 00000-0 00000-0 0 9999 2 28868 0.0459 66.0547 0003108 325.5488 269.7710 1.00272000 27561 IOR-W (EGNOS/PRN 126) 1 28899U 05044A 21110.50390494 .00000013 00000-0 00000-0 0 9992 2 28899 3.2055 33.0874 0002708 5.9998 55.0190 1.00272132 56633 QZS-1 (QZSS/PRN 183) 1 37158U 10045A 21110.38565987 -.00000082 00000-0 00000-0 0 9991 2 37158 41.9043 139.2719 0754264 270.3129 78.6242 1.00282680 38840 GSAT-8 (GAGAN/PRN 127) 1 37605U 11022A 21110.57395536 .00000085 00000-0 00000-0 0 9998 2 37605 0.0159 203.9312 0005213 105.2231 161.4326 1.00272955 34330 LUCH 5A (SDCM/PRN 140) 1 37951U 11074B 21110.59628774 -.00000043 00000-0 00000-0 0 9999 2 37951 3.9784 106.6656 0005051 301.6463 182.2318 1.00269605 34306 SES-5 (EGNOS/PRN 136) 1 38652U 12036A 21110.38452201 .00000035 00000-0 00000-0 0 9994 2 38652 0.0313 299.0082 0001885 84.4863 328.6087 1.00272717 25602 GSAT-10 (GAGAN/PRN 128) 1 38779U 12051B 21110.59758035 -.00000165 00000-0 00000-0 0 9993 2 38779 0.0460 104.0081 0000315 255.5250 147.4926 1.00273473 31232 LUCH 5B (SDCM/PRN 125) 1 38977U 12061A 21110.20076024 -.00000130 00000-0 00000+0 0 9994 2 38977 6.3900 65.6056 0003619 346.9511 211.9088 1.00272917 31282 ASTRA 5B (EGNOS/PRN 123) 1 39617U 14011B 21110.56924462 .00000155 00000-0 00000-0 0 9997 2 39617 0.0423 321.6174 0002850 71.9814 51.7061 1.00270207 25787 LUCH 5V (SDCM/PRN 141) 1 39727U 14023A 21110.51009868 -.00000268 00000-0 00000-0 0 9997 2 39727 0.5966 50.2637 0005084 17.1277 59.8176 1.00270071 25473 GSAT-15 (GAGAN/PRN 139) 1 41028U 15065A 21110.40327022 -.00000258 00000-0 00000-0 0 9993 2 41028 0.1138 96.7589 0002930 312.3587 38.2792 1.00272745 19916 E 117 W B (WAAS/PRN 131) 1 41589U 16038B 21110.54840956 -.00000011 00000-0 00000-0 0 9994 2 41589 0.0108 91.0233 0000495 20.6702 177.5736 1.00271158 17785 SES-15 (WAAS/PRN 133) 1 42709U 17026A 21110.53990464 .00000060 00000-0 00000-0 0 9999 2 42709 0.0374 39.3113 0000377 309.6709 285.0765 1.00269912 15266 QZS-2 (QZSS/PRN 184) 1 42738U 17028A 21110.47659269 -.00000176 00000-0 00000-0 0 9990 2 42738 42.4795 270.1196 0742087 270.6249 338.2106 1.00254570 14250 QZS-3 (QZSS/PRN 189) 1 42917U 17048A 21110.35465963 -.00000348 00000-0 00000-0 0 9995 2 42917 0.0872 131.7814 0002263 259.8149 71.7076 1.00266684 13362 QZS-4 (QZSS/PRN 185) 1 42965U 17062A 21109.58417480 -.00000302 00000-0 00000-0 0 9998 2 42965 40.8273 7.5874 0748090 270.4676 279.7212 1.00272822 12910